{"data":{"norad_id":57180,"intl_designator":"2023-091Q","name":"MONITOR-3 (RS58S)","alt_names":[],"object_type":"PAYLOAD","status":"ACTIVE","operator":null,"country":"CIS","launch_date":"2023-06-27","launch_site_code":"VOSTO","launch_vehicle":null,"mission":null,"orbit_class":"UNKNOWN","rcs_meters":null,"size_class":null,"mass_kg":null,"dimensions":null,"purposes":["comms"],"wikipedia_slug":null,"has_3d_model":false,"image_url":null,"decayed_at":null,"tle_current":{"epoch":"2026-09-19T21:58:35.194368Z","epoch_age_seconds":65005,"freshness":"FRESH","line1":"1 57180U 23091Q   26262.91568512  .00007341  00000+0  25909-3 0  9993","line2":"2 57180  97.4986 327.1189 0012460 122.1060 238.1391 15.29469385178760","mean_motion":15.29469385,"eccentricity":0.001246,"inclination_deg":97.4986,"raan_deg":327.1189,"arg_perigee_deg":122.106,"mean_anomaly_deg":238.1391,"bstar":0.00025909,"rev_number":17876,"period_min":94.150299059435,"perigee_km":468.85542657643,"apogee_km":485.93941835721,"semimajor_km":6855.5344224668,"source":"CELESTRAK","updated_at":"2026-09-20T09:00:45.237673Z"}}}